軌道要素
Epoch 2016 May 12.0 TT = JDT 2457520.5
T 2016 May 11.98591 TT MPCW
q 2.3523700 (2000.0) P Q
n 0.01001924 Peri. 89.40314 -0.02744174 -0.98004669
a 21.3098100 Node 11.56221 -0.21992472 -0.18619365
e 0.8896109 Incl. 79.17315 +0.97513080 -0.06957300
P 98.37
From 134 observations 2017 Mar. 1-May 29, mean residual 0".4.
|